Stations météo

réclame
Mon MeteoGroup
Cabauw Tower, Pays-Bas (6348): Température de l'air & dewpoint: 30.06.2020 11:00:00 - 06.07.2020 11:00:00 (CEST)Cabauw Tower, Pays-Bas (6348): Température de l'air 5cm: 30.06.2020 11:00:00 - 06.07.2020 11:00:00 (CEST)Cabauw Tower, Pays-Bas (6348): Vitesse du vent & gusts: 30.06.2020 11:00:00 - 06.07.2020 11:00:00 (CEST)Cabauw Tower, Pays-Bas (6348): Direction du vent: 30.06.2020 11:00:00 - 06.07.2020 11:00:00 (CEST)Cabauw Tower, Pays-Bas (6348): reduced air pressure: 30.06.2020 11:00:00 - 06.07.2020 11:00:00 (CEST)Cabauw Tower, Pays-Bas (6348): visibility: 30.06.2020 11:00:00 - 06.07.2020 11:00:00 (CEST)Cabauw Tower, Pays-Bas (6348): Quantités de précipitations: 30.06.2020 11:00:00 - 06.07.2020 11:00:00 (CEST)
Date & Time tt [°C] td [°C] tt 5cm [°C] ff [km/h] ff [knt] fx [km/h] fx [knt] dd ppp [hPa] vv [km] rr [mm]
06.07.2020 11:00:00 14,8 10,7 15,2 32 18 47 25 W 1014,6 19 0,2
06.07.2020 10:00:00 14,3 10,3 14,4 29 16 58 31 W 1014,0 14 0,1
06.07.2020 09:00:00 15,4 9,5 15,3 32 18 47 25 W 1013,2 21 0,0
06.07.2020 08:00:00 14,7 9,4 14,4 25 14 43 23 W 1012,6 22 0,0
06.07.2020 07:00:00 14,4 9,3 14,0 25 14 40 21 W 1012,1 20 0,0
06.07.2020 06:00:00 14,4 9,3 13,8 29 16 40 21 W 1011,7 17 0,0
06.07.2020 05:00:00 14,2 9,4 12,8 22 12 32 18 W 1011,3 17 0,0
06.07.2020 04:00:00 14,3 9,2 13,1 22 12 32 18 W 1011,2 17 0,0
06.07.2020 03:00:00 14,9 8,9 13,6 18 10 36 19 W 1011,2 20 0,0
06.07.2020 02:00:00 15,3 8,8 14,2 22 12 36 19 W 1011,1 25 0,0
06.07.2020 01:00:00 14,9 12,5 14,2 25 14 40 21 SW 1010,9 11 0,0
06.07.2020 00:00:00 15,8 12,0 14,8 29 16 47 25 WSW 1010,8 12 0,0
05.07.2020 23:00:00 16,2 11,9 15,6 29 16 54 29 SW 1010,6 14 0,0
05.07.2020 22:00:00 16,8 11,7 16,3 36 19 58 31 WSW 1010,5 16 0,0
05.07.2020 21:00:00 17,2 11,1 16,6 40 21 50 27 WSW 1010,2 23 0,0
05.07.2020 20:00:00 18,2 12,7 18,0 32 18 50 27 WSW 1010,3 20 0,0
05.07.2020 19:00:00 18,7 11,1 18,2 36 19 61 33 WSW 1010,1 30 0,0
05.07.2020 18:00:00 20,3 13,1 19,8 36 19 58 31 W 1010,3 31 0,0
05.07.2020 17:00:00 20,3 14,1 20,7 36 19 61 33 WSW 1010,3 32 0,0
05.07.2020 16:00:00 20,0 14,4 20,5 43 23 58 31 WSW 1010,2 30 0,0
05.07.2020 15:00:00 19,6 14,7 19,9 43 23 65 35 WSW 1010,1 35 0,0
05.07.2020 14:00:00 18,9 14,8 19,1 43 23 61 33 WSW 1010,2 27 0,0
05.07.2020 13:00:00 18,5 15,3 18,5 36 19 58 31 WSW 1010,1 18 0,0
05.07.2020 12:00:00 18,5 15,8 18,3 36 19 54 29 WSW 1010,0 30 0,0
05.07.2020 11:00:00 17,2 16,3 17,2 32 18 50 27 WSW 1010,0 4,8 0,1
05.07.2020 10:00:00 17,3 16,1 17,1 32 18 54 29 SW 1009,6 10 0,0
05.07.2020 09:00:00 17,2 15,7 17,0 36 19 58 31 SW 1009,3 9 0,0
05.07.2020 08:00:00 17,0 15,3 16,8 36 19 58 31 SW 1009,1 16 0,0
05.07.2020 07:00:00 16,9 14,9 16,6 36 19 54 29 SW 1009,3 24 0,0
05.07.2020 06:00:00 17,1 14,8 16,6 32 18 50 27 SW 1009,1 46 0,0
05.07.2020 05:00:00 17,3 14,8 16,7 36 19 54 29 SW 1009,3 35 0,0
05.07.2020 04:00:00 17,3 15,3 16,9 32 18 54 29 SW 1009,7 18 0,0
05.07.2020 03:00:00 17,7 15,9 17,2 29 16 47 25 SW 1010,2 33 0,0
05.07.2020 02:00:00 17,7 15,9 17,2 32 18 50 27 WSW 1010,6 22 0,0
05.07.2020 01:00:00 17,5 16,6 17,4 29 16 65 35 WSW 1010,8 12 0,1
05.07.2020 00:00:00 18,3 17,3 17,9 36 19 54 29 WSW 1010,5 4,5 1,1
04.07.2020 23:00:00 18,0 17,6 17,9 25 14 43 23 SW 1010,9 6 0,7
04.07.2020 22:00:00 17,8 17,3 17,6 32 18 47 25 SW 1010,9 3,6 1,8
04.07.2020 21:00:00 17,9 17,5 17,9 29 16 43 23 SW 1011,1 4,3 0,6
04.07.2020 20:00:00 18,1 17,2 17,9 29 16 43 23 SW 1011,3 4,7 0,3
04.07.2020 19:00:00 17,9 17,2 17,8 25 14 40 21 SW 1011,9 3,8 0,3
04.07.2020 18:00:00 17,5 17,1 17,6 29 16 40 21 SSW 1012,3 2,6 0,3
04.07.2020 17:00:00 17,4 16,8 17,6 29 16 47 25 SW 1012,6 2,8 0,1
04.07.2020 16:00:00 17,1 16,3 17,0 29 16 47 25 SSW 1012,6 4,2 0,0
04.07.2020 15:00:00 17,1 15,8 17,2 32 18 50 27 SW 1012,7 7 0,0
04.07.2020 14:00:00 17,3 15,8 17,7 32 18 50 27 SW 1012,8 9 0,0
04.07.2020 13:00:00 16,6 14,8 16,6 32 18 50 27 SW 1013,0 19 0,0
04.07.2020 12:00:00 16,0 14,7 16,1 32 18 50 27 SW 1012,7 17 0,1
04.07.2020 11:00:00 15,5 14,9 15,7 36 19 50 27 SW 1012,9 3,5 0,3
04.07.2020 10:00:00 15,6 14,6 15,7 32 18 50 27 SSW 1012,8 6 0,4
04.07.2020 09:00:00 16,3 13,8 16,3 32 18 50 27 SW 1012,9 33 0,0
04.07.2020 08:00:00 15,1 13,2 14,9 32 18 50 27 SW 1013,1 34 0,0
04.07.2020 07:00:00 15,1 13,1 14,7 25 14 50 27 SSW 1013,3 39 0,0
04.07.2020 06:00:00 14,5 12,9 14,1 29 16 58 31 SSW 1013,7 14 0,3
04.07.2020 05:00:00 14,2 12,8 13,9 36 19 54 29 SSW 1014,2 8 0,6
04.07.2020 04:00:00 15,1 12,2 14,4 29 16 47 25 SW 1014,6 36 0,2
04.07.2020 03:00:00 15,1 12,4 14,5 25 14 43 23 SW 1014,8 22 0,0
04.07.2020 02:00:00 16,1 11,6 15,7 29 16 43 23 SW 1015,0 40 0,0
04.07.2020 01:00:00 16,1 11,4 15,6 29 16 40 21 SW 1015,5 48 0,0
04.07.2020 00:00:00 16,1 11,0 15,4 25 14 40 21 SW 1015,6 45 0,0
03.07.2020 23:00:00 16,5 10,5 15,7 29 16 50 27 SW 1015,9 48 0,0
03.07.2020 22:00:00 16,6 10,8 15,9 29 16 43 23 SW 1015,8 48 0,0
03.07.2020 21:00:00 17,4 11,6 16,8 29 16 47 25 WSW 1016,1 34 0,0
03.07.2020 20:00:00 18,2 11,8 18,1 29 16 43 23 WSW 1016,1 36 0,0
03.07.2020 19:00:00 19,0 12,2 18,8 25 14 43 23 WSW 1015,9 39 0,0
03.07.2020 18:00:00 20,2 12,8 20,8 29 16 47 25 WSW 1015,9 29 0,0
03.07.2020 17:00:00 20,4 12,3 21,8 32 18 47 25 WSW 1015,9 29 0,0
03.07.2020 16:00:00 20,5 10,3 22,6 32 18 50 27 WSW 1016,5 44 0,0
03.07.2020 15:00:00 20,8 10,6 23,1 32 18 50 27 WSW 1016,4 34 0,0
03.07.2020 14:00:00 20,4 14,6 21,9 25 14 43 23 SW 1016,6 33 0,0
03.07.2020 13:00:00 18,9 14,1 19,6 29 16 40 21 SW 1016,6 20 0,0
03.07.2020 12:00:00 19,8 14,6 19,8 25 14 36 19 SSW 1016,4 18 0,0
03.07.2020 11:00:00 18,1 13,9 19,6 25 14 36 19 SW 1016,3 17 0,0
03.07.2020 10:00:00 18,0 14,3 18,8 22 12 32 18 SW 1016,2 19 0,0
03.07.2020 09:00:00 16,4 14,4 16,6 18 10 25 14 SW 1016,2 13 0,0
03.07.2020 08:00:00 15,8 14,1 15,5 14 8 22 12 WSW 1015,9 14 0,0
03.07.2020 07:00:00 14,7 13,7 14,4 11 6 14 8 SW 1015,7 10 0,0
03.07.2020 06:00:00 13,1 12,5 12,2 7 4 11 6 SW 1015,5 10 0,0
03.07.2020 05:00:00 13,0 12,2 11,8 11 6 18 10 WSW 1015,0 12 0,0
03.07.2020 04:00:00 13,5 12,7 12,4 11 6 18 10 WSW 1014,7 11 0,0
03.07.2020 03:00:00 14,7 13,3 13,8 14 8 22 12 WSW 1014,6 18 0,0
03.07.2020 02:00:00 15,4 14,5 15,0 14 8 22 12 SW 1014,2 10 0,0
03.07.2020 01:00:00 15,5 14,2 14,9 11 6 18 10 SW 1014,2 11 0,0
03.07.2020 00:00:00 15,7 14,0 15,3 14 8 25 14 WSW 1014,0 15 0,0
02.07.2020 23:00:00 16,0 13,6 15,5 11 6 22 12 WSW 1013,8 17 0,0
02.07.2020 22:00:00 16,4 12,9 15,8 11 6 25 14 WSW 1013,4 24 0,0
02.07.2020 21:00:00 17,6 13,2 17,5 14 8 22 12 WSW 1012,9 29 0,0
02.07.2020 20:00:00 17,1 12,4 16,8 18 10 32 18 WSW 1012,6 34 0,0
02.07.2020 19:00:00 18,6 11,2 19,4 25 14 36 19 W 1012,0 30 0,0
02.07.2020 18:00:00 19,6 12,0 21,1 22 12 36 19 W 1011,5 31 0,0
02.07.2020 17:00:00 19,6 11,7 19,7 22 12 32 18 W 1011,4 35 0,0
02.07.2020 16:00:00 20,2 11,3 19,3 25 14 40 21 W 1011,2 37 0,0
02.07.2020 15:00:00 19,5 11,5 21,0 22 12 32 18 W 1011,2 38 0,0
02.07.2020 14:00:00 18,3 11,8 19,1 22 12 36 19 W 1011,0 37 0,0
02.07.2020 13:00:00 19,7 13,0 20,6 25 14 40 21 W 1010,6 40 0,0
02.07.2020 12:00:00 17,7 14,3 19,0 18 10 32 18 SW 1010,3 29 0,0
02.07.2020 11:00:00 17,8 13,0 18,4 22 12 36 19 W 1009,8 31 0,1
02.07.2020 10:00:00 17,9 14,2 18,1 25 14 32 18 WSW 1009,3 27 0,0
02.07.2020 09:00:00 16,9 14,5 16,7 18 10 29 16 SSW 1009,2 21 0,0
02.07.2020 08:00:00 15,9 14,2 15,7 14 8 29 16 SW 1009,0 18 0,0
02.07.2020 07:00:00 15,5 13,9 15,2 14 8 22 12 SSW 1008,7 18 0,0
02.07.2020 06:00:00 15,1 13,6 14,8 14 8 18 10 SSW 1008,5 25 0,0
02.07.2020 05:00:00 14,8 13,4 14,5 11 6 18 10 SSW 1008,5 28 0,0
02.07.2020 04:00:00 15,0 13,2 14,7 11 6 22 12 SSW 1008,3 31 0,0
02.07.2020 03:00:00 15,5 13,1 14,9 14 8 22 12 SSW 1008,4 43 0,0
02.07.2020 02:00:00 15,2 13,4 14,9 11 6 25 14 SSW 1008,3 32 0,0
02.07.2020 01:00:00 15,5 12,9 14,3 18 10 25 14 SW 1008,2 39 0,0
02.07.2020 00:00:00 15,5 12,6 14,6 18 10 29 16 SW 1008,2 39 0,0
01.07.2020 23:00:00 16,3 12,7 14,9 18 10 25 14 WSW 1008,0 38 0,0
01.07.2020 22:00:00 17,5 12,2 16,1 18 10 29 16 W 1007,5 42 0,0
01.07.2020 21:00:00 18,3 12,4 17,6 22 12 32 18 WSW 1007,3 38 0,0
01.07.2020 20:00:00 19,3 12,2 19,5 22 12 40 21 W 1007,1 35 0,0
01.07.2020 19:00:00 19,7 12,2 19,7 25 14 40 21 W 1006,9 35 0,0
01.07.2020 18:00:00 20,0 12,4 20,8 25 14 47 25 WSW 1006,8 39 0,0
01.07.2020 17:00:00 20,0 12,9 21,6 29 16 47 25 WSW 1006,5 32 0,0
01.07.2020 16:00:00 19,6 12,7 20,7 32 18 50 27 WSW 1006,2 33 0,0
01.07.2020 15:00:00 19,6 13,3 20,2 32 18 50 27 WSW 1006,0 37 0,0
01.07.2020 14:00:00 19,3 14,5 19,0 29 16 40 21 WSW 1005,7 39 0,0
01.07.2020 13:00:00 18,5 15,3 19,3 22 12 32 18 SW 1005,3 34 0,0
01.07.2020 12:00:00 17,9 15,6 18,5 25 14 36 19 SW 1005,3 34 0,0
01.07.2020 11:00:00 18,3 15,2 18,7 25 14 40 21 WSW 1005,3 42 0,0
01.07.2020 10:00:00 18,0 15,7 18,0 22 12 36 19 SW 1005,2 35 0,0
01.07.2020 09:00:00 17,1 16,3 17,1 22 12 25 14 SW 1005,2 7 0,5
01.07.2020 08:00:00 16,9 16,2 16,8 14 8 25 14 SW 1005,2 7 0,7
01.07.2020 07:00:00 17,1 16,2 16,9 14 8 29 16 SW 1005,1 17 0,3
01.07.2020 06:00:00 17,1 16,3 16,8 18 10 25 14 SW 1005,1 7 0,3
01.07.2020 05:00:00 17,0 16,1 16,7 14 8 22 12 SW 1005,5 23 0,0
01.07.2020 04:00:00 16,7 15,8 16,5 18 10 40 21 WSW 1005,7 7 0,0
01.07.2020 03:00:00 16,9 15,4 16,6 22 12 36 19 WSW 1006,0 28 0,0
01.07.2020 02:00:00 16,9 15,9 16,6 18 10 29 16 WSW 1006,4 40 0,1
01.07.2020 01:00:00 16,5 16,2 16,3 18 10 29 16 W 1006,7 2,8 2,3
01.07.2020 00:00:00 16,1 16,0 16,1 11 6 29 16 W 1006,9 3,8 3,3
30.06.2020 23:00:00 16,3 15,8 16,2 22 12 29 16 SW 1007,0 4,3 1,3
30.06.2020 22:00:00 16,5 15,5 16,3 22 12 40 21 WSW 1006,9 18 0,1
30.06.2020 21:00:00 16,4 15,6 16,2 25 14 40 21 WSW 1006,8 4,5 0,9
30.06.2020 20:00:00 16,4 16,2 16,5 18 10 36 19 WSW 1006,9 3,1 3,9
30.06.2020 19:00:00 16,6 15,8 16,6 25 14 32 18 SSW 1007,1 9 0,1
30.06.2020 18:00:00 16,6 15,6 16,9 25 14 40 21 SSW 1007,7 13 0,1
30.06.2020 17:00:00 16,5 15,1 16,6 22 12 36 19 SSW 1008,3 19 0,4
30.06.2020 16:00:00 16,8 13,9 17,0 25 14 40 21 SW 1008,6 14 0,0
30.06.2020 15:00:00 18,1 12,9 18,5 25 14 47 25 SW 1008,6 34 0,0
30.06.2020 14:00:00 18,6 13,4 19,5 32 18 50 27 SW 1008,6 31 0,0
30.06.2020 13:00:00 17,2 14,1 17,9 32 18 47 25 SW 1008,7 28 0,0
30.06.2020 12:00:00 15,9 14,3 15,3 29 16 47 25 SW 1008,7 12 0,7
30.06.2020 11:00:00 17,2 13,7 16,2 32 18 54 29 SW 1008,5 20 0,0

tt = Température de l'air
td = dewpoint
tt 5cm = Température de l'air 5cm
ff = Vitesse du vent
fx = gusts
dd = Direction du vent
ppp = reduced air pressure
vv = visibility
rr = Quantités de précipitations

stations d'obs. à proximité